NORTHEAST SUFFOLK  -  Special Weather Statement Special Weather Statement        NORTHERN NASSAU  -  Special Weather Statement Special Weather Statement        NORTHWEST SUFFOLK  -  Special Weather Statement Special Weather Statement        SOUTHEAST SUFFOLK  -  Special Weather Statement Special Weather Statement        SOUTHERN NASSAU  -  Special Weather Statement Special Weather Statement        SOUTHWEST SUFFOLK  -  Special Weather Statement Special Weather Statement      

Active alerts

Northern Nassau
  Details for Northern Nassau Special Weather Statement
Southern Nassau
  Details for Southern Nassau Special Weather Statement
Northwest Suffolk
  Details for Northwest Suffolk Special Weather Statement
Southwest Suffolk
  Details for Southwest Suffolk Special Weather Statement
Northeast Suffolk
  Details for Northeast Suffolk Special Weather Statement
Southeast Suffolk
  Details for Southeast Suffolk Special Weather Statement


WXM80 ListenWXM80 Stop

You find our weather info also at:

UK Metoffice

WeatherCloud

Weather Underground

Northeastern Weather Network

AWEKAS

Citizen Weather Observer Program (CWOP)

HAMweather, WeatherForYou, PWS Weather


Weather Underground History page Text

Daily Summary for March 31, 2017 Units:  Metric    English   Both
« Previous Day
Next Day »
Daily Weekly Monthly Yearly Custom
  High: Low: Average:
Temperature: 5.6 °C 2.8 °C 3.9 °C
Dew Point: 4.1 °C 1.6 °C 2.9 °C
Humidity: 97 % 78 % 93 %
Wind Speed: 25.4 km/h 0 km/h 10.3 km/h
Wind Gust: 37 km/h - -
Wind:- - East
Pressure: 1020.5 hPa 1006 hPa -
Precipitation: 0 mm    
Historical Graphs
 
 
Tabular Data for March 31, 2017
Time Temperature Dew Point Pressure Wind Wind Speed Wind Gust Humidity Rainfall Rate (Hourly)
00:01 5.6 °C 2.2 °C 1019.2 hPa SSE 0.2 km/h 5.6 km/h 79 % 0 mm
00:06 5.4 °C 2.3 °C 1019.5 hPa South 6 km/h 8 km/h 80 % 0 mm
00:11 5.3 °C 2.2 °C 1019.5 hPa SSW 3.5 km/h 6.4 km/h 80 % 0 mm
00:17 5.3 °C 2.1 °C 1019.5 hPa WSW 3.2 km/h 7.4 km/h 80 % 0 mm
00:22 5.2 °C 2.1 °C 1019.5 hPa WSW 0.3 km/h 1.9 km/h 80 % 0 mm
00:27 5.2 °C 2 °C 1019.9 hPa Calm     80 % 0 mm
00:32 5.2 °C 1.8 °C 1019.5 hPa SW 0.6 km/h 3.2 km/h 79 % 0 mm
00:37 5.2 °C 1.8 °C 1019.5 hPa Calm     79 % 0 mm
00:42 5.1 °C 1.8 °C 1019.5 hPa Calm     79 % 0 mm
00:47 5.1 °C 1.8 °C 1019.5 hPa Calm     79 % 0 mm
00:52 5.1 °C 1.6 °C 1019.9 hPa Calm     78 % 0 mm
00:57 5.1 °C 1.6 °C 1020.2 hPa SW 0.6 km/h 1.9 km/h 78 % 0 mm
01:02 5.1 °C 1.8 °C 1019.9 hPa Calm     79 % 0 mm
01:07 5.1 °C 1.7 °C 1019.9 hPa Calm   1.9 km/h 79 % 0 mm
01:12 5.1 °C 1.8 °C 1019.9 hPa SSE 1.8 km/h 5.6 km/h 79 % 0 mm
01:17 5.1 °C 1.8 °C 1019.5 hPa SSE 1.6 km/h 6.4 km/h 79 % 0 mm
01:22 5.2 °C 1.8 °C 1019.9 hPa SE 1.6 km/h 8 km/h 79 % 0 mm
01:27 5.2 °C 1.8 °C 1019.9 hPa South 0.8 km/h 3.7 km/h 79 % 0 mm
01:32 5.2 °C 1.8 °C 1020.2 hPa Calm   1.6 km/h 79 % 0 mm
01:37 5.2 °C 1.8 °C 1020.2 hPa Calm   6.4 km/h 79 % 0 mm
01:42 5.2 °C 1.8 °C 1020.5 hPa South 3.2 km/h 8 km/h 79 % 0 mm
01:47 5.2 °C 1.9 °C 1020.2 hPa SSE 1.3 km/h 5.6 km/h 79 % 0 mm
01:52 5.2 °C 2.1 °C 1020.2 hPa SSE 1.6 km/h 11.3 km/h 80 % 0 mm
01:57 5.2 °C 2.1 °C 1020.2 hPa SE 1.4 km/h 4.8 km/h 80 % 0 mm
02:02 5.2 °C 2.2 °C 1020.2 hPa SSE 3.2 km/h 7.4 km/h 81 % 0 mm
02:07 5.2 °C 2.2 °C 1020.2 hPa SSE 1.3 km/h 3.7 km/h 81 % 0 mm
02:12 5.2 °C 2.3 °C 1020.5 hPa SSE 1.6 km/h 4.8 km/h 82 % 0 mm
02:17 5.2 °C 2.3 °C 1020.5 hPa Calm   4.8 km/h 82 % 0 mm
02:22 5.1 °C 2.6 °C 1020.2 hPa Calm   4.8 km/h 84 % 0 mm
02:27 5.1 °C 2.6 °C 1020.2 hPa Calm   6.4 km/h 84 % 0 mm
02:32 5 °C 2.5 °C 1019.9 hPa SSE 0.3 km/h 1.9 km/h 84 % 0 mm
02:37 5 °C 2.5 °C 1019.9 hPa SE 1.6 km/h 4.8 km/h 84 % 0 mm
02:42 4.9 °C 2.6 °C 1019.9 hPa ESE 1.6 km/h 4.8 km/h 85 % 0 mm
02:47 4.8 °C 2.5 °C 1019.9 hPa SE 0.8 km/h 5.6 km/h 85 % 0 mm
02:52 4.8 °C 2.4 °C 1019.9 hPa SE 1.6 km/h 4.8 km/h 85 % 0 mm
02:57 4.7 °C 2.4 °C 1019.5 hPa SE 0.6 km/h 3.2 km/h 85 % 0.25 mm
03:02 4.7 °C 2.5 °C 1019.5 hPa SE 1 km/h 3.7 km/h 86 % 0.25 mm
03:08 4.6 °C 2.4 °C 1019.5 hPa SE 0.5 km/h 1.9 km/h 86 % 0.25 mm
03:13 4.5 °C 2.3 °C 1019.9 hPa Calm     86 % 0.25 mm
03:18 4.4 °C 2.4 °C 1020.2 hPa Calm   1.9 km/h 87 % 0.51 mm
03:23 4.4 °C 2.4 °C 1019.9 hPa Calm     87 % 0.51 mm
03:28 4.4 °C 2.4 °C 1020.2 hPa Calm     87 % 0.51 mm
03:33 4.3 °C 2.5 °C 1020.2 hPa Calm     88 % 0.51 mm
03:38 4.3 °C 2.4 °C 1020.5 hPa Calm     88 % 0.51 mm
03:43 4.3 °C 2.4 °C 1020.5 hPa Calm     88 % 0.51 mm
03:48 4.3 °C 2.6 °C 1020.5 hPa Calm     89 % 0.51 mm
03:53 4.2 °C 2.6 °C 1020.5 hPa Calm     89 % 0.25 mm
03:58 4.2 °C 2.6 °C 1020.2 hPa Calm     89 % 0.25 mm
04:03 4.2 °C 2.6 °C 1020.2 hPa Calm     89 % 0.25 mm
04:08 4.2 °C 2.7 °C 1019.5 hPa SE 1.6 km/h 3.7 km/h 90 % 0.25 mm
04:13 4.2 °C 2.7 °C 1019.9 hPa East 3.1 km/h 3.7 km/h 90 % 0.25 mm
04:18 4 °C 2.3 °C 1019.5 hPa SE 2.3 km/h 5.6 km/h 89 % 0.25 mm
04:23 3.8 °C 2 °C 1019.5 hPa SSE 7.6 km/h 11.3 km/h 88 % 0.25 mm
04:28 3.6 °C 1.8 °C 1019.5 hPa SSE 1.6 km/h 5.6 km/h 88 % 0.25 mm
04:33 3.5 °C 1.7 °C 1019.2 hPa SSE 0.8 km/h 1.9 km/h 88 % 0.25 mm
04:38 3.4 °C 1.7 °C 1019.5 hPa SSE 1.1 km/h 3.7 km/h 88 % 0.25 mm
04:43 3.3 °C 1.7 °C 1019.5 hPa SSE 0.3 km/h 1.9 km/h 89 % 0.51 mm
04:48 3.2 °C 1.6 °C 1019.2 hPa SSE 0.2 km/h 1.9 km/h 89 % 0.51 mm
04:53 3.2 °C 1.6 °C 1019.2 hPa Calm   1.9 km/h 89 % 0.51 mm
04:58 3.2 °C 1.7 °C 1019.2 hPa SSE 1.4 km/h 3.7 km/h 90 % 0.51 mm
05:03 3.1 °C 1.7 °C 1019.2 hPa SSE 0.5 km/h 3.7 km/h 91 % 0.51 mm
05:08 3 °C 1.7 °C 1019.2 hPa Calm     91 % 0.51 mm
05:14 2.9 °C 1.6 °C 1019.2 hPa SSE 1.1 km/h 1.9 km/h 91 % 0.76 mm
05:19 2.9 °C 1.6 °C 1019.2 hPa Calm     91 % 0.51 mm
05:24 2.9 °C 1.6 °C 1019.2 hPa Calm     91 % 0.51 mm
05:29 2.9 °C 1.8 °C 1019.2 hPa SSE 0.2 km/h 1.9 km/h 92 % 1.27 mm
05:34 3 °C 1.8 °C 1019.2 hPa Calm     92 % 1.78 mm
05:39 3 °C 2 °C 1019.2 hPa Calm   1.9 km/h 93 % 2.03 mm
05:44 3 °C 2 °C 1019.2 hPa SSE 0.3 km/h 1.9 km/h 93 % 1.78 mm
05:49 2.9 °C 1.9 °C 1018.8 hPa ESE 1.1 km/h 3.2 km/h 93 % 1.78 mm
05:54 2.9 °C 1.9 °C 1018.8 hPa ESE 1.6 km/h 3.7 km/h 93 % 1.78 mm
05:59 2.9 °C 1.9 °C 1018.8 hPa ESE 1 km/h 1.9 km/h 93 % 1.78 mm
06:04 2.9 °C 1.9 °C 1018.5 hPa ESE 3.2 km/h 3.7 km/h 93 % 1.78 mm
06:09 2.9 °C 1.9 °C 1018.5 hPa ESE 1.4 km/h 3.7 km/h 93 % 1.78 mm
06:14 2.9 °C 1.9 °C 1018.5 hPa ESE 1.8 km/h 3.7 km/h 93 % 1.52 mm
06:19 2.9 °C 2 °C 1018.5 hPa East 2.4 km/h 7.4 km/h 94 % 1.52 mm
06:24 2.9 °C 2 °C 1018.5 hPa East 2.1 km/h 3.7 km/h 94 % 1.52 mm
06:29 2.9 °C 2 °C 1018.5 hPa East 2.4 km/h 3.7 km/h 94 % 0.76 mm
06:34 2.9 °C 2 °C 1018.5 hPa East 5.3 km/h 8 km/h 94 % 0.25 mm
06:39 2.8 °C 1.9 °C 1018.5 hPa East 4.5 km/h 8 km/h 94 % 0 mm
06:44 2.8 °C 1.9 °C 1018.5 hPa East 3.1 km/h 7.4 km/h 94 % 0 mm
06:49 2.8 °C 1.9 °C 1018.5 hPa East 2.1 km/h 3.7 km/h 94 % 0 mm
06:54 2.8 °C 1.9 °C 1018.2 hPa East 2.7 km/h 5.6 km/h 94 % 0 mm
06:59 2.8 °C 1.9 °C 1018.2 hPa East 2.7 km/h 4.8 km/h 94 % 0 mm
07:04 2.8 °C 1.9 °C 1018.5 hPa SE 0.8 km/h 5.6 km/h 94 % 0 mm
07:06 2.8 °C 1.9 °C 1018.5 hPa ESE 0.5 km/h 5.6 km/h 94 % 0 mm
07:11 2.8 °C 1.9 °C 1018.5 hPa ESE 3.5 km/h 5.6 km/h 94 % 0 mm
07:16 2.8 °C 1.9 °C 1018.2 hPa ESE 3.2 km/h 5.6 km/h 94 % 0 mm
07:21 2.8 °C 1.9 °C 1018.2 hPa East 2.3 km/h 3.7 km/h 94 % 0 mm
07:26 2.8 °C 2.1 °C 1018.2 hPa East 2.9 km/h 5.6 km/h 95 % 0 mm
07:31 2.8 °C 1.9 °C 1018.2 hPa East 4.7 km/h 8 km/h 94 % 0 mm
07:36 2.8 °C 1.9 °C 1018.2 hPa East 2.6 km/h 3.7 km/h 94 % 0 mm
07:41 2.9 °C 2.2 °C 1018.2 hPa East 2.7 km/h 5.6 km/h 95 % 0 mm
07:46 2.9 °C 2.2 °C 1018.2 hPa East 2.6 km/h 5.6 km/h 95 % 0 mm
07:51 2.9 °C 2.2 °C 1018.2 hPa East 6.1 km/h 8 km/h 95 % 0 mm
07:56 3 °C 2.3 °C 1018.2 hPa East 6.1 km/h 8 km/h 95 % 0 mm
08:01 3 °C 2.3 °C 1018.2 hPa East 5.8 km/h 9.3 km/h 95 % 0 mm
08:06 3.1 °C 2.3 °C 1018.2 hPa East 7.9 km/h 9.7 km/h 95 % 0 mm
08:11 3.1 °C 2.3 °C 1018.2 hPa East 6.6 km/h 11.1 km/h 95 % 0 mm
08:16 3.1 °C 2.4 °C 1018.2 hPa East 8.4 km/h 11.1 km/h 95 % 0 mm
08:21 3.2 °C 2.4 °C 1018.2 hPa ENE 5.1 km/h 7.4 km/h 95 % 0 mm
08:26 3.2 °C 2.7 °C 1018.2 hPa East 9.3 km/h 11.1 km/h 96 % 0 mm
08:31 3.2 °C 2.7 °C 1018.2 hPa East 9.2 km/h 12.9 km/h 96 % 0.25 mm
08:36 3.3 °C 2.7 °C 1018.2 hPa East 7.4 km/h 11.1 km/h 96 % 0.25 mm
08:41 3.3 °C 2.7 °C 1018.2 hPa ENE 8.2 km/h 9.7 km/h 96 % 0.25 mm
08:46 3.2 °C 2.7 °C 1018.2 hPa ENE 8.9 km/h 11.1 km/h 96 % 0.25 mm
08:51 3.2 °C 2.7 °C 1018.2 hPa East 10.5 km/h 11.3 km/h 96 % 0.25 mm
08:56 3.3 °C 2.7 °C 1017.8 hPa ENE 9 km/h 13 km/h 96 % 0.25 mm
09:01 3.3 °C 2.8 °C 1017.8 hPa ENE 10.3 km/h 13 km/h 96 % 0.25 mm
09:06 3.3 °C 2.8 °C 1017.8 hPa East 8.4 km/h 11.1 km/h 96 % 0.25 mm
09:11 3.4 °C 2.8 °C 1017.8 hPa East 9.7 km/h 14.8 km/h 96 % 0.25 mm
09:16 3.4 °C 2.8 °C 1017.8 hPa East 11.7 km/h 14.8 km/h 96 % 0.25 mm
09:21 3.4 °C 2.9 °C 1017.8 hPa East 9.7 km/h 13 km/h 96 % 0.25 mm
09:26 3.4 °C 2.9 °C 1017.5 hPa ENE 10.5 km/h 14.8 km/h 96 % 0.25 mm
09:31 3.5 °C 2.9 °C 1017.5 hPa East 9.8 km/h 13 km/h 96 % 0 mm
09:36 3.6 °C 3 °C 1017.5 hPa East 7.1 km/h 11.1 km/h 96 % 0 mm
09:41 3.6 °C 3.1 °C 1017.2 hPa East 10.1 km/h 13 km/h 96 % 0 mm
09:46 3.6 °C 3.1 °C 1017.2 hPa ENE 9.7 km/h 14.8 km/h 96 % 0.25 mm
09:51 3.7 °C 3.1 °C 1017.2 hPa East 9.3 km/h 14.8 km/h 96 % 0.25 mm
09:56 3.7 °C 3.1 °C 1017.2 hPa East 7.2 km/h 9.7 km/h 96 % 0.25 mm
10:01 3.7 °C 3.2 °C 1017.2 hPa East 6.3 km/h 11.1 km/h 96 % 0.25 mm
10:06 3.8 °C 3.3 °C 1017.2 hPa East 9.3 km/h 11.1 km/h 97 % 0.25 mm
10:11 3.8 °C 3.4 °C 1017.2 hPa East 4 km/h 7.4 km/h 97 % 0.25 mm
10:16 3.9 °C 3.3 °C 1016.8 hPa ENE 5.6 km/h 9.3 km/h 96 % 0.25 mm
10:21 3.9 °C 3.5 °C 1017.2 hPa East 6.8 km/h 11.1 km/h 97 % 0.25 mm
10:26 3.9 °C 3.5 °C 1017.2 hPa East 5.8 km/h 11.1 km/h 97 % 0.25 mm
10:31 4 °C 3.6 °C 1017.2 hPa East 9 km/h 12.9 km/h 97 % 0.25 mm
10:36 4.1 °C 3.6 °C 1016.8 hPa East 7.7 km/h 11.1 km/h 97 % 0.25 mm
10:41 4.1 °C 3.7 °C 1016.8 hPa East 6.8 km/h 11.1 km/h 97 % 0.25 mm
10:46 4.2 °C 3.7 °C 1016.8 hPa East 5.1 km/h 8 km/h 97 % 0 mm
10:51 4.2 °C 3.8 °C 1016.8 hPa East 7.2 km/h 11.1 km/h 97 % 0 mm
10:56 4.3 °C 3.9 °C 1016.8 hPa East 4.3 km/h 13 km/h 97 % 0 mm
11:02 4.3 °C 3.9 °C 1016.8 hPa East 6.9 km/h 14.8 km/h 97 % 0 mm
11:06 4.3 °C 3.9 °C 1016.5 hPa SE 7.1 km/h 16.7 km/h 97 % 0 mm
11:11 4.4 °C 3.9 °C 1016.5 hPa East 6.1 km/h 14.8 km/h 97 % 0 mm
11:16 4.4 °C 3.9 °C 1016.5 hPa East 8.2 km/h 11.1 km/h 97 % 0.25 mm
11:21 4.4 °C 3.9 °C 1016.5 hPa ESE 7.1 km/h 11.1 km/h 97 % 0.25 mm
11:26 4.4 °C 4 °C 1016.5 hPa East 11.3 km/h 13 km/h 97 % 0.25 mm
11:31 4.4 °C 4 °C 1016.5 hPa East 7.4 km/h 13 km/h 97 % 0.25 mm
11:36 4.4 °C 4 °C 1016.5 hPa East 11.4 km/h 16.7 km/h 97 % 0.25 mm
11:41 4.4 °C 4 °C 1016.1 hPa ESE 10.8 km/h 18.5 km/h 97 % 0.25 mm
11:46 4.5 °C 4.1 °C 1016.1 hPa East 11.1 km/h 14.8 km/h 97 % 0.25 mm
11:51 4.5 °C 4.1 °C 1016.1 hPa East 9.8 km/h 14.8 km/h 97 % 0.25 mm
11:57 4.4 °C 3.9 °C 1016.1 hPa East 11.9 km/h 16.7 km/h 96 % 0.25 mm
12:02 4.4 °C 3.8 °C 1016.1 hPa ESE 11.9 km/h 16.7 km/h 96 % 0.25 mm
12:07 4.4 °C 3.8 °C 1016.1 hPa East 9.3 km/h 14.8 km/h 96 % 0.25 mm
12:12 4.4 °C 3.8 °C 1015.8 hPa SE 5.3 km/h 9.7 km/h 96 % 0.25 mm
12:17 4.4 °C 3.9 °C 1015.8 hPa East 13.7 km/h 18.5 km/h 96 % 0 mm
12:22 4.4 °C 3.9 °C 1015.8 hPa East 11.6 km/h 14.8 km/h 96 % 0 mm
12:27 4.5 °C 3.9 °C 1015.8 hPa ESE 7.1 km/h 20.4 km/h 96 % 0 mm
12:32 4.5 °C 3.9 °C 1015.8 hPa East 7.7 km/h 11.3 km/h 96 % 0 mm
12:37 4.6 °C 4 °C 1015.5 hPa East 5.6 km/h 7.4 km/h 96 % 0 mm
12:42 4.6 °C 4.1 °C 1015.5 hPa East 8.4 km/h 11.1 km/h 96 % 0 mm
12:47 4.7 °C 4.1 °C 1015.5 hPa East 9.8 km/h 13 km/h 96 % 0 mm
12:52 4.6 °C 4.1 °C 1015.5 hPa East 9.3 km/h 12.9 km/h 96 % 0 mm
12:57 4.6 °C 4.1 °C 1015.5 hPa SE 12.4 km/h 19.3 km/h 96 % 0 mm
13:02 4.6 °C 4 °C 1015.5 hPa East 8.5 km/h 13 km/h 96 % 0 mm
13:07 4.6 °C 4 °C 1015.5 hPa East 9.7 km/h 19.3 km/h 96 % 0 mm
13:12 4.6 °C 4 °C 1015.5 hPa East 9.7 km/h 14.5 km/h 96 % 0 mm
13:17 4.6 °C 4 °C 1015.1 hPa East 14.5 km/h 22.5 km/h 96 % 0 mm
13:22 4.5 °C 3.9 °C 1015.1 hPa East 11.1 km/h 16.1 km/h 96 % 0 mm
13:27 4.4 °C 3.9 °C 1015.1 hPa East 12.9 km/h 25.7 km/h 96 % 0 mm
13:32 4.4 °C 3.7 °C 1015.1 hPa ESE 12.9 km/h 25.7 km/h 95 % 0 mm
13:37 4.4 °C 3.7 °C 1015.1 hPa East 9.7 km/h 14.8 km/h 95 % 0.25 mm
13:42 4.3 °C 3.6 °C 1014.8 hPa East 13.5 km/h 18.5 km/h 95 % 0.25 mm
13:47 4.3 °C 3.6 °C 1014.8 hPa East 16.1 km/h 22.5 km/h 95 % 0 mm
13:52 4.3 °C 3.6 °C 1014.8 hPa East 18 km/h 22.5 km/h 95 % 0.25 mm
13:57 4.2 °C 3.5 °C 1014.8 hPa ESE 16.6 km/h 20.9 km/h 95 % 0.25 mm
14:02 4.2 °C 3.4 °C 1014.4 hPa East 9.8 km/h 18.5 km/h 95 % 0.25 mm
14:07 4.2 °C 3.4 °C 1014.4 hPa East 11.3 km/h 14.8 km/h 95 % 0.25 mm
14:12 4.1 °C 3.2 °C 1014.8 hPa SE 9.7 km/h 13 km/h 94 % 0.25 mm
14:17 4.1 °C 3.2 °C 1014.4 hPa East 12.9 km/h 14.8 km/h 94 % 0.25 mm
14:22 4.1 °C 3.3 °C 1014.4 hPa East 14.2 km/h 14.8 km/h 95 % 0.25 mm
14:27 4 °C 3.3 °C 1014.4 hPa East 15.1 km/h 20.4 km/h 95 % 0 mm
14:32 3.9 °C 3.2 °C 1014.4 hPa East 14.8 km/h 22.2 km/h 95 % 0 mm
14:37 3.9 °C 3.2 °C 1014.1 hPa East 12.9 km/h 20.9 km/h 95 % 0 mm
14:42 3.9 °C 3.2 °C 1014.1 hPa East 12.9 km/h 16.1 km/h 95 % 0 mm
14:47 3.9 °C 3.2 °C 1013.8 hPa East 12.9 km/h 25.7 km/h 95 % 0 mm
14:52 3.9 °C 3.2 °C 1013.8 hPa East 14.5 km/h 22.5 km/h 95 % 0 mm
14:57 3.8 °C 3.1 °C 1013.8 hPa ESE 17.1 km/h 20.9 km/h 95 % 0 mm
15:02 3.8 °C 3.1 °C 1013.4 hPa East 14.5 km/h 24.1 km/h 95 % 0 mm
15:07 3.8 °C 3.1 °C 1013.8 hPa East 14.5 km/h 22.5 km/h 95 % 0 mm
15:12 3.8 °C 3.1 °C 1013.4 hPa East 16.1 km/h 17.7 km/h 95 % 0.25 mm
15:17 3.8 °C 3.1 °C 1013.4 hPa East 19.3 km/h 24.1 km/h 95 % 0 mm
15:22 3.8 °C 3.1 °C 1013.4 hPa East 16.1 km/h 22.5 km/h 95 % 0 mm
15:27 3.8 °C 3.1 °C 1013.1 hPa East 16.1 km/h 24.1 km/h 95 % 0 mm
15:32 3.9 °C 3.2 °C 1013.1 hPa East 14.5 km/h 20.9 km/h 95 % 0 mm
15:37 3.9 °C 3.2 °C 1013.1 hPa East 16.7 km/h 20.4 km/h 95 % 0.25 mm
15:42 3.9 °C 3.2 °C 1013.1 hPa East 14.3 km/h 20.4 km/h 95 % 0.25 mm
15:47 3.9 °C 3.2 °C 1012.8 hPa East 14.5 km/h 20.9 km/h 95 % 0 mm
15:52 3.9 °C 3.2 °C 1012.8 hPa East 14.5 km/h 22.5 km/h 95 % 0 mm
15:57 3.9 °C 3.2 °C 1012.8 hPa East 13.8 km/h 18.5 km/h 95 % 0.25 mm
16:03 3.9 °C 3.2 °C 1012.4 hPa ESE 14.8 km/h 20.4 km/h 95 % 0 mm
16:08 3.9 °C 3.2 °C 1012.4 hPa East 16.3 km/h 20.4 km/h 95 % 0 mm
16:13 3.9 °C 3.2 °C 1012.1 hPa East 15.4 km/h 18.5 km/h 95 % 0 mm
16:18 4 °C 3.4 °C 1012.1 hPa East 18.8 km/h 24.1 km/h 96 % 0 mm
16:23 3.9 °C 3.4 °C 1012.4 hPa East 16.3 km/h 24.1 km/h 96 % 0 mm
16:28 3.9 °C 3.2 °C 1012.4 hPa East 15.9 km/h 24.1 km/h 95 % 0 mm
16:33 4 °C 3.4 °C 1012.4 hPa East 17.5 km/h 24.1 km/h 96 % 0 mm
16:38 4 °C 3.4 °C 1012.1 hPa East 17.1 km/h 22.2 km/h 96 % 0 mm
16:43 4 °C 3.4 °C 1011.7 hPa East 16.3 km/h 25.9 km/h 96 % 0 mm
16:48 4 °C 3.3 °C 1011.7 hPa East 17.7 km/h 24.1 km/h 95 % 0 mm
16:53 4 °C 3.3 °C 1011.7 hPa ESE 17.7 km/h 25.9 km/h 95 % 0 mm
16:58 4 °C 3.3 °C 1011.4 hPa East 21.2 km/h 24.1 km/h 95 % 0.25 mm
17:03 3.9 °C 3.2 °C 1011.4 hPa East 18.5 km/h 24.1 km/h 95 % 0.25 mm
17:08 3.9 °C 3.2 °C 1011.1 hPa East 17.7 km/h 24.1 km/h 95 % 0.25 mm
17:13 3.9 °C 3.2 °C 1011.1 hPa East 15.4 km/h 22.2 km/h 95 % 0.25 mm
17:18 3.9 °C 3.2 °C 1011.1 hPa East 17.5 km/h 24.1 km/h 95 % 0.25 mm
17:23 3.9 °C 3.2 °C 1010.7 hPa East 22.2 km/h 25.9 km/h 95 % 0.25 mm
17:28 3.9 °C 3.2 °C 1010.7 hPa East 18.3 km/h 27.8 km/h 95 % 0.25 mm
17:33 3.9 °C 3.4 °C 1010.7 hPa East 16.4 km/h 20.4 km/h 96 % 0.25 mm
17:38 3.9 °C 3.4 °C 1010.4 hPa East 18.3 km/h 24.1 km/h 96 % 0.25 mm
17:43 3.9 °C 3.4 °C 1010.4 hPa East 20.1 km/h 31.5 km/h 96 % 0.25 mm
17:49 3.9 °C 3.3 °C 1010.4 hPa East 21.7 km/h 27.8 km/h 96 % 0.25 mm
17:54 3.9 °C 3.3 °C 1010.4 hPa East 16.3 km/h 25.9 km/h 96 % 0.25 mm
17:59 3.9 °C 3.3 °C 1010 hPa East 21.7 km/h 25.9 km/h 96 % 0.25 mm
18:04 3.9 °C 3.3 °C 1010 hPa ENE 16.1 km/h 22.2 km/h 96 % 0.25 mm
18:09 3.9 °C 3.3 °C 1010 hPa East 16.7 km/h 22.5 km/h 96 % 0.25 mm
18:14 3.9 °C 3.3 °C 1010 hPa East 16.9 km/h 20.4 km/h 96 % 0.25 mm
18:19 3.9 °C 3.3 °C 1010 hPa East 19.2 km/h 25.9 km/h 96 % 0.25 mm
18:24 3.9 °C 3.3 °C 1009.7 hPa East 20.9 km/h 27.8 km/h 96 % 0.25 mm
18:29 3.9 °C 3.3 °C 1009.7 hPa East 17.1 km/h 20.4 km/h 96 % 0.25 mm
18:34 3.9 °C 3.3 °C 1009.7 hPa ENE 18.3 km/h 22.2 km/h 96 % 0.25 mm
18:39 3.9 °C 3.4 °C 1009.7 hPa East 18.8 km/h 25.9 km/h 96 % 0.25 mm
18:44 3.9 °C 3.4 °C 1009.7 hPa East 16.4 km/h 22.2 km/h 96 % 0.25 mm
18:49 3.9 °C 3.4 °C 1009.7 hPa East 17.7 km/h 22.5 km/h 96 % 0.25 mm
18:54 3.9 °C 3.4 °C 1009.7 hPa East 18.3 km/h 27.8 km/h 96 % 0.25 mm
18:59 3.9 °C 3.4 °C 1009.7 hPa ENE 19.8 km/h 24.1 km/h 96 % 0 mm
19:05 3.9 °C 3.4 °C 1009.4 hPa East 17.5 km/h 22.2 km/h 96 % 0 mm
19:10 3.9 °C 3.4 °C 1009 hPa ENE 19.6 km/h 27.8 km/h 96 % 0 mm
19:15 3.9 °C 3.4 °C 1009.4 hPa East 17.4 km/h 22.5 km/h 96 % 0 mm
19:20 3.9 °C 3.4 °C 1009 hPa East 17.7 km/h 20.9 km/h 96 % 0 mm
19:25 3.9 °C 3.4 °C 1009 hPa East 19.3 km/h 25.9 km/h 96 % 0 mm
19:30 3.9 °C 3.4 °C 1009 hPa East 17.2 km/h 22.2 km/h 96 % 0 mm
19:35 3.9 °C 3.4 °C 1009 hPa ENE 17.2 km/h 22.2 km/h 96 % 0 mm
19:40 3.9 °C 3.4 °C 1009 hPa East 18.5 km/h 25.9 km/h 96 % 0.25 mm
19:45 3.9 °C 3.4 °C 1008.7 hPa East 17.7 km/h 22.2 km/h 96 % 0.25 mm
19:50 4 °C 3.4 °C 1008.4 hPa ENE 17.7 km/h 22.2 km/h 96 % 0.25 mm
19:55 4 °C 3.4 °C 1008.4 hPa East 19.5 km/h 24.1 km/h 96 % 0.25 mm
20:00 4 °C 3.4 °C 1008.4 hPa East 20.1 km/h 25.9 km/h 96 % 0.25 mm
20:05 4 °C 3.4 °C 1008.4 hPa ENE 18.7 km/h 25.9 km/h 96 % 0.25 mm
20:10 4 °C 3.4 °C 1008.4 hPa East 15.6 km/h 22.2 km/h 96 % 0.25 mm
20:15 4 °C 3.4 °C 1008.4 hPa ENE 22.2 km/h 24.1 km/h 96 % 0.25 mm
20:20 4 °C 3.4 °C 1008.4 hPa East 16.4 km/h 25.9 km/h 96 % 0.25 mm
20:25 4 °C 3.4 °C 1008.4 hPa ENE 14.3 km/h 25.9 km/h 96 % 0.25 mm
20:30 4 °C 3.4 °C 1008.4 hPa ENE 18.3 km/h 22.2 km/h 96 % 0.25 mm
20:36 4 °C 3.4 °C 1008 hPa East 23 km/h 27.8 km/h 96 % 0.25 mm
20:41 4 °C 3.4 °C 1008.4 hPa East 18.2 km/h 27.8 km/h 96 % 0 mm
20:46 4 °C 3.4 °C 1008 hPa ENE 15.4 km/h 24.1 km/h 96 % 0 mm
20:51 3.9 °C 3.4 °C 1008.4 hPa East 13.4 km/h 22.2 km/h 96 % 0 mm
20:56 3.9 °C 3.3 °C 1008.4 hPa East 15 km/h 22.2 km/h 96 % 0 mm
21:01 3.8 °C 3.2 °C 1008.4 hPa ENE 14.6 km/h 24.1 km/h 96 % 0.25 mm
21:06 3.8 °C 3.2 °C 1008.4 hPa East 17.5 km/h 25.9 km/h 96 % 0.25 mm
21:11 3.8 °C 3.2 °C 1008.4 hPa ENE 15.9 km/h 22.2 km/h 96 % 0.25 mm
21:16 3.8 °C 3.2 °C 1008 hPa ENE 15.6 km/h 20.4 km/h 96 % 0.25 mm
21:21 3.8 °C 3.2 °C 1008 hPa East 18.8 km/h 25.9 km/h 96 % 0.25 mm
21:26 3.8 °C 3.2 °C 1008 hPa East 20.8 km/h 25.9 km/h 96 % 0.25 mm
21:31 3.8 °C 3.3 °C 1007.7 hPa ENE 19.8 km/h 24.1 km/h 97 % 0.25 mm
21:36 3.7 °C 3.3 °C 1007.7 hPa ENE 20.1 km/h 25.9 km/h 97 % 0.25 mm
21:41 3.7 °C 3.3 °C 1007.7 hPa ENE 21.4 km/h 27.8 km/h 97 % 0.25 mm
21:46 3.7 °C 3.2 °C 1007.7 hPa ENE 22.2 km/h 29.6 km/h 96 % 0.25 mm
21:51 3.7 °C 3.2 °C 1007.7 hPa ENE 20.8 km/h 25.9 km/h 96 % 0.25 mm
21:56 3.7 °C 3.2 °C 1007.3 hPa ENE 22.2 km/h 27.8 km/h 96 % 0.25 mm
22:01 3.7 °C 3.2 °C 1007 hPa ENE 21.7 km/h 31.5 km/h 97 % 0 mm
22:06 3.7 °C 3.2 °C 1007 hPa NE 21.9 km/h 27.8 km/h 97 % 0 mm
22:11 3.7 °C 3.2 °C 1006.7 hPa ENE 23.2 km/h 33.3 km/h 97 % 0 mm
22:16 3.7 °C 3.2 °C 1006.7 hPa ENE 22.4 km/h 31.5 km/h 97 % 0 mm
22:21 3.6 °C 3.2 °C 1006.7 hPa ENE 22 km/h 29 km/h 97 % 0 mm
22:26 3.6 °C 3.1 °C 1006.7 hPa ENE 20.9 km/h 27.8 km/h 97 % 0 mm
22:31 3.6 °C 3.1 °C 1006.7 hPa ENE 23.8 km/h 35.2 km/h 97 % 0 mm
22:36 3.6 °C 3.1 °C 1006.7 hPa ENE 19.3 km/h 25.9 km/h 97 % 0 mm
22:41 3.5 °C 3.1 °C 1006.3 hPa ENE 24.9 km/h 31.5 km/h 97 % 0 mm
22:46 3.5 °C 3.1 °C 1006.3 hPa NE 24.1 km/h 29.6 km/h 97 % 0 mm
22:51 3.4 °C 3 °C 1006.3 hPa NE 18.7 km/h 25.9 km/h 97 % 0 mm
22:56 3.4 °C 3 °C 1006.3 hPa ENE 22.2 km/h 29.6 km/h 97 % 0 mm
23:01 3.4 °C 3 °C 1006.3 hPa ENE 22.7 km/h 37 km/h 97 % 0 mm
23:06 3.4 °C 2.9 °C 1006.3 hPa East 21.4 km/h 27.4 km/h 97 % 0 mm
23:11 3.4 °C 2.9 °C 1006.3 hPa East 22 km/h 29.6 km/h 97 % 0 mm
23:16 3.3 °C 2.9 °C 1006.3 hPa ENE 20.4 km/h 27.8 km/h 97 % 0.25 mm
23:21 3.3 °C 2.9 °C 1006.7 hPa ENE 23.3 km/h 29.6 km/h 97 % 0.25 mm
23:26 3.3 °C 2.8 °C 1006.3 hPa ENE 21.2 km/h 29.6 km/h 97 % 0.25 mm
23:32 3.2 °C 2.8 °C 1006.3 hPa East 22.5 km/h 33.8 km/h 97 % 0.25 mm
23:37 3.2 °C 2.8 °C 1006.3 hPa ENE 24.8 km/h 31.5 km/h 97 % 0.25 mm
23:42 3.2 °C 2.7 °C 1006.3 hPa ENE 23.3 km/h 31.5 km/h 97 % 0.25 mm
23:47 3.2 °C 2.7 °C 1006 hPa East 25.4 km/h 35.2 km/h 97 % 0.25 mm
23:52 3.1 °C 2.7 °C 1006.3 hPa East 22.9 km/h 31.5 km/h 97 % 0.25 mm
23:57 3.1 °C 2.7 °C 1006 hPa East 21.7 km/h 31.5 km/h 97 % 0.25 mm
Crab Meadow Weather
Compliments of Weather Underground - 3 mb

Script developed by  Jim McMurry - jmcmurry@mwt.net Adapted for the template by  Wim van der Kuil - Leuven-Template.eu

Cloud Base: The cloud base is the distance from the sea level to the base of the clouds. It is estimated using the current temperature and humidity to indicate an altitude where the air could be cold enough for clouds to form. There may or may not be clouds at that altitude (or at any altitude)